SCP
0 0 0 0 0 0 0 0 0 0 0 0 0 0 0 0 0 0 0 0 0 0
1 0 0 0 0 0 0 0 0 0 0 0 0 0 0 0 0 0 0 0 0 0
2 1 0 0 0 0 0 0 0 0 0 0 0 0 0 0 0 0 0 0 0 0
0 0 1 0 0 0 0 0 0 0 0 0 0 0 0 0 0 0 0 0 0 0
0 0 0 1 0 0 0 0 0 0 0 0 0 0 0 0 0 0 0 0 0 0
0 0 0 0 0 0 0 0 0 0 0 0 0 0 0 0 0 0 0 0 0 0
0 0 0 0 0 0 0 0 0 0 0 0 0 0 0 0 0 0 0 0 0 0
0 0 0 -0 0 0 0 0 0 0 0 0 0 0 0 0 0 0 0 -0 -0 0
0 0 0 0 0 0 0 0 0 0 0 0 0 0 0 0 0 0 -0 -0 -0 0
0 0 0 0 0 0 1 0 0 0 0 0 0 0 0 0 0 0 -0 0 0 0
0 0 0 -0 -0 0 0 -0 0 0 0 0 0 0 0 0 0 0 0 0 0 0
0 0 0 0 -0 -0 -0 0 0 0 0 -0 0 0 0 0 0 -0 0 0 0 0
0 0 0 0 0 0 0 0 0 0 0 0 0 0 0 0 0 0 0 0 0 0
0 0 0 0 0 0 0 0 0 0 0 0 0 0 0 0 0 0 0 0 0 0
Wind_Speed_500mb
77 88 96 97 91 78 71 63 61 64 61 57 52 45 41 37 29 24 20 18 11 7
70 71 94 100 92 80 64 62 58 57 57 58 57 57 50 45 36 29 26 22 14 10
35 68 85 88 90 81 71 64 62 61 56 68 70 62 57 49 44 37 33 28 20 17
58 70 67 75 92 94 80 59 78 72 69 73 70 68 62 56 51 44 39 35 29 25
75 70 86 96 114 91 74 74 73 78 78 76 74 73 71 66 60 52 45 39 38 33
70 82 96 93 83 86 91 87 81 91 88 77 74 79 78 73 68 59 52 44 37 38
66 71 87 80 50 57 94 99 95 94 96 86 75 76 80 79 72 66 61 56 49 39
54 71 80 87 99 68 81 85 108 91 97 82 81 77 79 80 66 59 73 65 59 46
20 61 62 68 78 65 64 73 105 108 111 93 89 83 74 76 79 85 81 71 64 55
10 26 50 46 44 43 74 53 61 88 86 84 77 80 81 87 97 88 72 76 69 61
20 15 29 52 69 56 46 54 56 80 87 81 101 91 88 84 95 88 67 74 73 64
27 24 25 36 40 58 52 56 67 80 92 89 91 85 89 93 92 78 66 62 69 68
33 35 28 31 47 58 55 56 56 57 64 63 83 89 94 90 89 81 67 61 65 68
40 41 38 29 36 43 42 46 43 46 48 56 65 72 81 84 91 87 70 64 68 73
Wind_Direction_500mb
213 214 215 211 206 207 206 206 203 204 205 207 212 218 219 218 218 220 214 209 200 195
219 224 219 218 214 205 202 205 200 205 212 215 214 215 217 217 216 215 214 211 200 176
203 216 220 216 215 213 212 213 227 216 215 221 218 220 219 216 214 213 213 212 200 191
228 237 240 226 220 215 220 244 222 226 214 218 221 220 224 221 218 214 214 213 211 204
241 235 241 235 225 229 232 230 232 236 222 223 222 224 223 222 222 218 217 219 215 215
243 235 236 232 230 236 236 230 245 241 233 230 230 228 227 225 226 224 224 222 222 226
237 237 227 237 234 279 249 247 242 244 247 236 236 231 228 228 227 228 230 227 223 224
230 230 230 239 246 257 251 238 240 247 242 243 240 232 231 232 234 243 238 233 229 228
266 226 227 234 248 239 237 237 243 248 241 246 242 238 230 228 230 236 237 235 233 231
335 231 224 252 219 249 233 222 264 247 251 248 243 235 229 224 227 241 235 236 235 235
339 269 234 248 236 244 213 214 208 229 236 219 230 221 230 228 232 239 236 236 238 240
318 331 273 240 243 220 229 239 239 234 228 228 232 223 227 231 236 243 244 239 238 240
317 320 310 264 249 249 249 246 243 242 241 241 241 233 239 239 237 244 241 237 234 238
304 301 302 298 271 251 243 244 247 250 254 251 246 249 248 247 241 241 238 235 232 233
Wind_Speed_850mb
77 88 96 97 91 78 71 63 61 64 61 57 52 45 41 37 29 24 20 18 11 7
70 71 94 100 92 80 64 62 58 57 57 58 57 57 50 45 36 29 26 22 14 10
35 68 85 88 90 81 71 64 62 61 56 68 70 62 57 49 44 37 33 28 20 17
58 70 67 75 92 94 80 59 78 72 69 73 70 68 62 56 51 44 39 35 29 25
75 70 86 96 114 91 74 74 73 78 78 76 74 73 71 66 60 52 45 39 38 33
70 82 96 93 83 86 91 87 81 91 88 77 74 79 78 73 68 59 52 44 37 38
66 71 87 80 50 57 94 99 95 94 96 86 75 76 80 79 72 66 61 56 49 39
54 71 80 87 99 68 81 85 108 91 97 82 81 77 79 80 66 59 73 65 59 46
20 61 62 68 78 65 64 73 105 108 111 93 89 83 74 76 79 85 81 71 64 55
10 26 50 46 44 43 74 53 61 88 86 84 77 80 81 87 97 88 72 76 69 61
20 15 29 52 69 56 46 54 56 80 87 81 101 91 88 84 95 88 67 74 73 64
27 24 25 36 40 58 52 56 67 80 92 89 91 85 89 93 92 78 66 62 69 68
33 35 28 31 47 58 55 56 56 57 64 63 83 89 94 90 89 81 67 61 65 68
40 41 38 29 36 43 42 46 43 46 48 56 65 72 81 84 91 87 70 64 68 73
Wind_Direction_850mb
213 214 215 211 206 207 206 206 203 204 205 207 212 218 219 218 218 220 214 209 200 195
219 224 219 218 214 205 202 205 200 205 212 215 214 215 217 217 216 215 214 211 200 176
203 216 220 216 215 213 212 213 227 216 215 221 218 220 219 216 214 213 213 212 200 191
228 237 240 226 220 215 220 244 222 226 214 218 221 220 224 221 218 214 214 213 211 204
241 235 241 235 225 229 232 230 232 236 222 223 222 224 223 222 222 218 217 219 215 215
243 235 236 232 230 236 236 230 245 241 233 230 230 228 227 225 226 224 224 222 222 226
237 237 227 237 234 279 249 247 242 244 247 236 236 231 228 228 227 228 230 227 223 224
230 230 230 239 246 257 251 238 240 247 242 243 240 232 231 232 234 243 238 233 229 228
266 226 227 234 248 239 237 237 243 248 241 246 242 238 230 228 230 236 237 235 233 231
335 231 224 252 219 249 233 222 264 247 251 248 243 235 229 224 227 241 235 236 235 235
339 269 234 248 236 244 213 214 208 229 236 219 230 221 230 228 232 239 236 236 238 240
318 331 273 240 243 220 229 239 239 234 228 228 232 223 227 231 236 243 244 239 238 240
317 320 310 264 249 249 249 246 243 242 241 241 241 233 239 239 237 244 241 237 234 238
304 301 302 298 271 251 243 244 247 250 254 251 246 249 248 247 241 241 238 235 232 233